Погода в Кабале

Погода в Кабале : погода сейчас, прогноз погоды и архив. Всё, что Вы хотите узнать о погоде в Кабале!

Поиск расширенной информации на нашем сайте:

Другие новости

Новости СМИ2

Главная страница сайта

Новости сайта

03.07.2017

Напоминаем, что на нашем специализированном сайте Метеоцентр.Азия вы можете получить высокодетализированные автоматические прогнозы погоды по пунктам России, СНГ и мира в авиационном формате (включающие направление и скорость ветра, видимость, явления погоды, количество и форму облачности, нижнюю и верхнюю границу облачности).

Рекомендуем: Цветы в шляпных коробках цветы в шляпных коробках. 3

Погода в Кабале - сегодня

Время (UTC), дата Ветер
(°,м/с) 
Видим.   Явления Облачность Т
(°С)
Тd
(°С)
f(%) Тe
(°С)
Pmin
(гПа)
dP
(гПа)
Po
(мм)
O2
(г/м3)
Тmin Tmax R s Состояние
почвы
00 11.12.17 320 (СЗ) 20000 м    ясно 
-0.4 -1.9 90 -1  1023.3  -0.6  705  285           
03 11.12.17 290 (З) 4000 м    10/10 600 м 
[Sc]
-0.9 -2.4 90 -2  1022.4  -1  705  285           
06 11.12.17 090 (В) 0200 м  туман  ?/?  
-0.7 -1 98 -2  1022.4  0.1  705  285  -1.1        замёрзшая 
09 11.12.17 140 (ЮВ) 0200 м  туман  ?/?  
+0.9 +0.6 98 +2  1022  0.1  705  283           
12 11.12.17 090 (В) 20000 м    8/8 1000 м 
[Sc]
+4.9 +2.2 83 +3  1021.6  0.8  705  279           
15 11.12.17 050 (СВ) 20000 м    ясно 
+4 +0.6 78 +4  1025  2.8  707  281           
21 11.12.17 050 (СВ) 20000 м    ясно 
+2.7 -1.2 75 +2  1031.2  1.4  711  284           
00 12.12.17 050 (СВ) 20000 м    ясно 
+1.1 -1.8 81 1032.1  0.4  712  286           
03 12.12.17 050 (СВ) 4000 м    10/10 600 м 
[Sc]
+3.4 -0.7 74 +3  1031.2  -0.2  712  283           
06 12.12.17 180 (Ю) 10 км    10/10 600 м 
[Sc]
+3.1 +1 86 +3  1031.5  0.3  712  283  +0.9        замёрзшая 
09 12.12.17 180 (Ю) 10 км    6/6 600 м 
[Sc]
+6.9 +5.3 90 +7  1029.3  -0.9  711  279           
12 12.12.17 180 (Ю) 10 км    10/10 600 м 
[Sc]
+6.3 +2.1 74 +6  1028  -1.4  710  279           
15 12.12.17 270 (З) 4000 м    10/10 600 м 
[Sc]
+4.2 +1.9 85 +4  1028.9    710  281           
18 12.12.17 270 (З) 4000 м    10/10 600 м 
[Sc]
+3.7 +1.1 83 +3  1029.3  0.3  710  282    +7.5       
21 12.12.17 270 (З) 20000 м    ясно 
+2.3 -2 73 +2  1030  0.2  711  284           
00 13.12.17 360 (С) 20000 м    ясно 
+1.5 -0.2 88 +1  1029.8  -0.5  710  284           
03 13.12.17 360 (С) 20000 м    ясно 
+0.7 -1 88 1029.4  -0.3  710  285           
09 13.12.17 180 (Ю) 10 км    10/10 600 м 
[Sc]
+4.7 +2.2 84 +4  1028.5  -0.1  710  281           
12 13.12.17 230 (ЮЗ) 10 км    10/10 600 м 
[Sc]
+4.8 +2.3 84 +4  1027.7  -0.7  710  280           
15 13.12.17 270 (З) 4000 м    10/10 600 м 
[Sc]
+3.6 +2.3 91 +3  1027.6  -0.5  709  282           
21 13.12.17 090 (В) 4000 м    10/10 600 м 
[Sc]
+3.9 +0.2 77 +3  1027.2  -0.9  709  281           
00 14.12.17 020 (С) 4000 м    10/10 600 м 
[Sc]
+3.6 -0.2 76 +3  1026.5  -0.8  708  282           
03 14.12.17 050 (СВ) 4000 м    10/10 600 м 
[Sc]
+3.7 -0.6 73 +2  1025.6  -0.8  708  281           
06 14.12.17 020 (С) 10 км    10/10 600 м 
[Sc]
+4 -0.9 70 +4  1026.1  0.6  708  281  +3.4        влажная 
09 14.12.17 360 (С) 10 км    10/10 600 м 
[Sc]
+5.3 -0.5 66 +5  1026.2  0.4  709  280           
Время (UTC), дата Ветер
(°,м/с) 
Видим.   Явления Облачность Т
(°С)
Тd
(°С)
f(%) Тe
(°С)
Pmin
(гПа)
dP
(гПа)
Po
(мм)
O2
(г/м3)
Тmin Tmax R s Состояние
почвы

Для получения пояснительной информации подведите курсор к названию столбца.

ПОГОДА в Кабале - архив

Всё, что Вы хотите узнать о погоде в Кабале - удобно и подробно!

Выберите нужную дату (начиная с 1 января 2015* года) и нажмите кнопку "Найти".
Будут отображены архивные сводки погоды по пункту Кабала, начиная с указанной даты.


Отображать данные в формате CSV (для использования в таблицах Excel)


Внимание! Наш архив погоды предназначен исключительно для личного некоммерческого использования в познавательных целях. Если Вам необходимы официальные справки о состоянии погоды (для производственных, юридических, коммерческих и т.п. целей), обращайтесь в органы Росгидромета.

*Примечание: данная дата относится к архиву по метеостанциям СССР (Россия, СНГ, Балтия).
Архив по метеостанциям Зарубежной Европы и Азии (кроме Китая) хранится 10 дней, по другим регионам земного шара (Китай, Африка, Америка, Австралия, Океания) - 1 день.

Кабала - район местоположения метеостанции


Название, широта, долгота, высота метеостанции:
Кабала 41°ш. 47.9°д. 682 м над ур. моря [Азербайджан]

Дополнительная информация

В oтличие oт бoльшинства пoгoдных сайтoв мы публикуем пoдрoбную метеoинфoрмацию в детальнoм прoфессиoнальнoм фoрмате.

Характеристики температуры и влажнoсти вoздуха измеряются на высoте 2 м в тени вдали oт зданий и деревьев.
Скoрoсть ветра измеряется на высoте 10 м (на урoвне рoста челoвека скoрoсть ветра ниже в 1.5-2 раза). Если метеoстанция нахoдится в гoрoде или в лесу, тo скoрoсть ветра занижена на 2-4 м/с пo сравнению с oткрытым местoм. Скoрoсть ветра над акватoриями крупных рек и oзёр, а также на вершинах хoлмoв на 2-5 м/с выше, чем в oбычных услoвиях.
Атмoсфернoе давление в разных тoчках местнoсти мoжет значительнo oтличаться oт давления на метеoстанции, в зависимoсти oт услoвий рельефа (при пoдъёме на 10 м давление пoнижается примернo на 1 мм рт.ст.).